Weather History for Daytona Beach, FL

Change the Weather History Date:

Saturday, June 29, 2013

  Actual Average Record
Temperature  
Mean Temperature 82 °F 81 °F  
Max Temperature 89 °F 89 °F 98 °F (1998)
Min Temperature 75 °F 73 °F 66 °F (1963)
Degree Days  
Heating Degree Days 0 0  
Month to date heating degree days 0 0  
Since 1 June heating degree days 0 0  
Since 1 July heating degree days 694 809  
Cooling Degree Days 17 16  
Month to date cooling degree days 471 432  
Year to date cooling degree days 1123 1033  
Since 1 June cooling degree days 471 432  
Growing Degree Days 32 (Base 50)    
Moisture  
Dew Point 72 °F    
Average Humidity 79    
Maximum Humidity 94    
Minimum Humidity 63    
Precipitation  
Precipitation 0.14 in 0.19 in 1.92 in (2011)
Month to date precipitation 6.80 5.64  
Year to date precipitation 21.63 20.71  
Sea Level Pressure  
Sea Level Pressure 29.85 in    
Wind  
Wind Speed 8 mph (SW)    
Max Wind Speed 31 mph    
Max Gust Speed 37 mph    
Visibility 9 miles    
Events Rain , Thunderstorm    
T = Trace of Precipitation, MM = Missing Value Source: NWS Daily Summary

Daily Weather History Graph

Daily Weather History Graph

Search for Another Location

Airport:

Trip Planner

Search our weather history database for the weather conditions in past years. The results will help you decide how hot, cold, wet, or windy it might be!

Date:

Astronomy

Jun. 29, 2013 Rise Set
Actual Time 6:28 AM EDT 8:27 PM EDT
Civil Twilight 6:00 AM EDT 8:54 PM EDT
Nautical Twilight 5:28 AM EDT 9:27 PM EDT
Astronomical Twilight 4:53 AM EDT 10:02 PM EDT
Moon 12:27 AM EDT (6/29) 1:03 PM EDT (6/29)
Length of Visible Light 14h 53m
Length of Day
13h 59m
Waning Gibbous, 56% of the Moon is Illuminated
Jun 29
Waning Gibbous
Jun 30
Last Quarter
Jul 8
New
Jul 15
First Quarter
Jul 22
Full

Hourly Weather History & Observations

Time (EDT) Temp. Heat Index Dew Point Humidity Pressure Visibility Wind Dir Wind Speed Gust Speed Precip Events Conditions
12:53 AM 75.0 °F - 71.1 °F 87% 29.86 in 10.0 mi South 6.9 mph - N/A   Scattered Clouds
1:53 AM 75.0 °F - 71.1 °F 87% 29.84 in 10.0 mi South 6.9 mph - N/A   Overcast
2:53 AM 75.0 °F - 71.1 °F 87% 29.83 in 10.0 mi SSW 8.1 mph - N/A   Mostly Cloudy
3:53 AM 75.0 °F - 72.0 °F 90% 29.84 in 10.0 mi SSW 6.9 mph - N/A   Mostly Cloudy
4:53 AM 75.9 °F - 72.0 °F 87% 29.84 in 10.0 mi SSW 5.8 mph - N/A   Overcast
5:53 AM 75.0 °F - 72.0 °F 90% 29.86 in 10.0 mi SSW 4.6 mph - N/A   Overcast
6:53 AM 75.9 °F - 73.0 °F 91% 29.86 in 10.0 mi South 4.6 mph - N/A   Overcast
7:53 AM 78.1 °F - 75.0 °F 90% 29.87 in 10.0 mi South 5.8 mph - N/A   Overcast
8:53 AM 81.0 °F 86.7 °F 75.0 °F 82% 29.86 in 10.0 mi SSW 11.5 mph - N/A   Overcast
9:53 AM 82.0 °F 87.9 °F 73.9 °F 76% 29.85 in 10.0 mi SSW 10.4 mph - N/A   Overcast
10:53 AM 84.9 °F 92.1 °F 73.9 °F 69% 29.85 in 10.0 mi SW 10.4 mph - N/A   Overcast
11:07 AM 86.0 °F 93.4 °F 73.4 °F 66% 29.84 in 10.0 mi SSW 13.8 mph 21.9 mph N/A   Mostly Cloudy
11:47 AM 87.8 °F 95.6 °F 73.4 °F 62% 29.85 in 10.0 mi SSW 13.8 mph 21.9 mph N/A   Mostly Cloudy
11:53 AM 88.0 °F 95.6 °F 73.0 °F 61% 29.85 in 10.0 mi SW 16.1 mph 23.0 mph N/A   Mostly Cloudy
12:00 PM 82.4 °F 86.3 °F 69.8 °F 66% 29.87 in 10.0 mi West 21.9 mph 36.8 mph N/A   Mostly Cloudy
12:05 PM 80.6 °F 83.9 °F 69.8 °F 70% 29.88 in 9.0 mi West 18.4 mph 36.8 mph N/A   Mostly Cloudy
12:16 PM 75.2 °F - 69.8 °F 83% 29.88 in 1.0 mi WSW 15.0 mph 27.6 mph 0.02 in Rain Heavy Rain
12:21 PM 75.2 °F - 71.6 °F 89% 29.88 in 1.0 mi West 9.2 mph 27.6 mph 0.08 in Rain , Thunderstorm Heavy Thunderstorms and Rain
12:34 PM 75.2 °F - 71.6 °F 89% 29.88 in 6.0 mi WSW 5.8 mph - 0.13 in Rain , Thunderstorm Light Thunderstorms and Rain
12:45 PM 75.2 °F - 71.6 °F 89% 29.88 in 10.0 mi WSW 6.9 mph - 0.13 in Rain Light Rain
12:53 PM 75.9 °F - 72.0 °F 87% 29.88 in 10.0 mi West 8.1 mph - 0.13 in Rain Light Rain
1:53 PM 80.1 °F 84.2 °F 73.0 °F 79% 29.85 in 10.0 mi West 8.1 mph - 0.00 in   Mostly Cloudy
2:53 PM 84.0 °F 91.2 °F 73.9 °F 72% 29.83 in 10.0 mi SW 6.9 mph - N/A   Mostly Cloudy
3:53 PM 87.1 °F 95.4 °F 73.9 °F 65% 29.81 in 10.0 mi SW 10.4 mph - N/A   Mostly Cloudy
4:53 PM 87.1 °F 96.3 °F 75.0 °F 67% 29.81 in 10.0 mi West 3.5 mph - 0.01 in   Mostly Cloudy
5:53 PM 88.0 °F 95.6 °F 73.0 °F 61% 29.81 in 10.0 mi SSW 8.1 mph - N/A   Mostly Cloudy
6:33 PM 84.2 °F 89.6 °F 71.6 °F 66% 29.80 in 10.0 mi West 9.2 mph - N/A Thunderstorm Thunderstorm
6:53 PM 79.0 °F - 72.0 °F 79% 29.81 in 10.0 mi WNW 8.1 mph - N/A Thunderstorm Thunderstorm
7:19 PM 80.6 °F 84.6 °F 71.6 °F 74% 29.81 in 10.0 mi Calm Calm - N/A   Mostly Cloudy
7:53 PM 80.1 °F 83.8 °F 72.0 °F 76% 29.82 in 10.0 mi East 5.8 mph - N/A   Mostly Cloudy
8:53 PM 80.1 °F 83.8 °F 72.0 °F 76% 29.83 in 10.0 mi South 5.8 mph - N/A   Mostly Cloudy
9:53 PM 79.0 °F - 71.1 °F 77% 29.84 in 10.0 mi South 5.8 mph - N/A   Mostly Cloudy
10:53 PM 78.1 °F - 70.0 °F 76% 29.85 in 10.0 mi SSW 8.1 mph - N/A   Mostly Cloudy
11:53 PM 77.0 °F - 71.1 °F 82% 29.85 in 10.0 mi South 6.9 mph - N/A   Mostly Cloudy